Weather History for East Point, PE

Change the Weather History Date:

Thursday, October 11, 2012

  Actual Average Record
Temperature  
Mean Temperature 54 °F -  
Max Temperature 62 °F - - ()
Min Temperature 46 °F - - ()
Degree Days  
Heating Degree Days 11    
Growing Degree Days 4 (Base 50)    
Moisture  
Dew Point 47 °F    
Average Humidity 75    
Maximum Humidity 91    
Minimum Humidity 44    
Precipitation  
Precipitation 0.00 in - - ()
Sea Level Pressure  
Sea Level Pressure 29.65 in    
Wind  
Wind Speed 17 mph ()    
Max Wind Speed 25 mph    
Max Gust Speed 44 mph    
T = Trace of Precipitation, MM = Missing Value Source: Averaged Metar Reports

Daily Weather History Graph

Daily Weather History Graph

Search for Another Location

Airport:

Trip Planner

Search our weather history database for the weather conditions in past years. The results will help you decide how hot, cold, wet, or windy it might be!

Date:

Astronomy

Oct. 11, 2012 Rise Set
Actual Time 7:20 AM ADT 6:27 PM ADT
Civil Twilight 6:50 AM ADT 6:58 PM ADT
Nautical Twilight 6:15 AM ADT 7:32 PM ADT
Astronomical Twilight 5:40 AM ADT 8:07 PM ADT
Moon 2:40 AM ADT (10/11) 4:13 PM ADT (10/11)
Length of Visible Light 12h 07m
Length of Day
11h 07m
Waning Crescent, 19% of the Moon is Illuminated
Oct 11
Waning Crescent
Oct 15
New
Oct 22
First Quarter
Oct 29
Full
Nov 6
Last Quarter

Hourly Weather History & Observations

Time (ADT) Temp. Dew Point Humidity Pressure Visibility Wind Dir Wind Speed Gust Speed Precip Events Conditions
12:00 AM 56 °F 52 °F 82% 29.86 in - SSE 16.1 mph - -  
12:00 AM 55.6 °F 52.0 °F 88% 29.86 in - SSE 16.1 mph 25.3 mph N/A   Unknown
1:00 AM 56.1 °F 52.9 °F 89% 29.82 in - SSE 18.4 mph 24.2 mph N/A   Unknown
2:00 AM 56.7 °F 53.4 °F 89% 29.77 in - SSE 19.6 mph 27.6 mph N/A   Unknown
3:00 AM 57.2 °F 54.3 °F 90% 29.72 in - SSE 17.3 mph 28.8 mph N/A   Unknown
4:00 AM 57.7 °F 55.0 °F 91% 29.66 in - SSE 17.3 mph 27.6 mph N/A   Unknown
5:00 AM 58.3 °F 55.8 °F 91% 29.61 in - SSE 17.3 mph 27.6 mph N/A   Unknown
6:00 AM 59 °F 56 °F 88%  in - SSE 19.6 mph - -  
6:00 AM 59.0 °F 56.3 °F 91% 29.53 in - SSE 19.6 mph 28.8 mph N/A   Unknown
7:00 AM 59.5 °F 56.8 °F 91% 29.47 in - SSE 25.3 mph 36.8 mph N/A   Unknown
8:00 AM 60.6 °F 57.9 °F 91% 29.42 in - SSE 25.3 mph 34.5 mph N/A   Unknown
9:00 AM 62 °F 60 °F 90% 29.39 in - South 24.2 mph - -  
9:00 AM 62.4 °F 59.7 °F 91% 29.39 in - South 24.2 mph 34.5 mph N/A   Unknown
10:00 AM 59.7 °F 55.2 °F 85% 29.41 in - WSW 18.4 mph 26.5 mph N/A   Unknown
12:00 PM 54 °F 46 °F 65% 29.52 in - West 19.6 mph - -  
12:00 PM 54.5 °F 45.5 °F 72% 29.52 in - West 19.6 mph 34.5 mph N/A   Unknown
2:00 PM 54.3 °F 41.2 °F 61% 29.57 in - West 24.2 mph 34.5 mph N/A   Unknown
3:00 PM 53 °F 38 °F 44% 29.61 in - West 24.2 mph - -  
3:00 PM 52.5 °F 37.6 °F 57% 29.61 in - West 24.2 mph 33.4 mph N/A   Unknown
5:00 PM 51.4 °F 40.6 °F 67% 29.66 in - WNW 21.9 mph 43.7 mph N/A   Unknown
6:00 PM 50 °F 36 °F 48% 29.73 in - West 19.6 mph - -  
6:00 PM 49.6 °F 36.1 °F 60% 29.73 in - West 19.6 mph 29.9 mph N/A   Unknown
7:00 PM 46.8 °F 36.7 °F 68% 29.78 in - West 18.4 mph 27.6 mph N/A   Unknown
9:00 PM 47 °F 32 °F 45% 29.86 in - West 19.6 mph - -  
9:00 PM 46.8 °F 31.6 °F 56% 29.86 in - West 19.6 mph 31.1 mph N/A   Unknown
11:00 PM 46.9 °F 29.7 °F 51% 29.90 in - West 24.2 mph 33.4 mph N/A   Unknown